Regional Weather Roundup
Issued by NWS

Home | Current Version | Previous Version | Graphics & Text | Print | Product List | Glossary On
Versions: 1 2 3 4 5 6 7 8 9 10 11 12 13 14 15 16 17 18 19 20 21 22 23 24 25 26 27 28 29 30 31 32 33 34 35 36 37 38 39 40 41 42 43 44 45 46 47 48 49 50
000
ASUS45 KPSR 281100
RWRAZ

PRELIMINARY ARIZONA REGIONAL HOURLY WEATHER ROUNDUP
NATIONAL WEATHER SERVICE PHOENIX AZ
400 AM MST MON JUL 28 2014

NOTE: FAIR INDICATES FEW OR NO CLOUDS BELOW 12,000 FEET WITH NO
SIGNIFICANT WEATHER AND/OR OBSTRUCTIONS TO VISIBILITY.

AZZ001>003-036-281200-
NORTHWEST ARIZONA

CITY           SKY/WX    TMP DP  RH WIND       PRES   REMARKS
KINGMAN        MOCLDY    78  55  44 SE13      30.14R
$$

AZZ004>008-015-016-018-281200-
NORTH CENTRAL ARIZONA

CITY           SKY/WX    TMP DP  RH WIND       PRES   REMARKS
GRAND CANYON   CLOUDY    59  55  87 E7        30.38F
WILLIAMS       CLOUDY    59  54  82 SE8       30.44F
PRESCOTT       MOCLDY    68  54  60 SW6       30.27S
FLAGSTAFF      CLOUDY    58  52  80 CALM      30.42F
PAGE           PTCLDY    75  54  47 SW5       30.23S
$$

AZZ009>014-017-281200-
NORTHEAST ARIZONA

CITY           SKY/WX    TMP DP  RH WIND       PRES   REMARKS
WINSLOW        NOT AVBL
SAINT JOHNS    LGT RAIN  64  58  80 SW5       30.36R
WINDOW ROCK    MOCLDY    60  51  72 E3        30.44S
$$

AZZ023-281200-
GREATER PHOENIX AREA

CITY           SKY/WX    TMP DP  RH WIND       PRES   REMARKS
PHOENIX        CLOUDY    86  60  41 SE9       29.98S
BUCKEYE          N/A     86  57  37 E12       29.98R
LUKE AFB       NOT AVBL
DEER VALLEY    MOCLDY    83  63  50 SE5       30.01R
SCOTTSDALE     CLOUDY    84  63  49 SE3       30.03R
MESA-GATEWAY     N/A    N/A N/A N/A MISG        N/A
$$

AZZ027-028-281200-
SOUTHWEST MARICOPA COUNTY AND PINAL COUNTY

CITY           SKY/WX    TMP DP  RH WIND       PRES   REMARKS
CASA GRANDE    CLOUDY    82  59  44 NE6       30.02S
$$

AZZ503-504-507>509-281200-
SOUTHEAST ARIZONA

CITY           SKY/WX    TMP DP  RH WIND       PRES   REMARKS
TUCSON         CLOUDY    77  64  64 SE14      30.11S
DAVIS-MONTHAN  MOCLDY    74  67  77 SE8       30.10S
NOGALES        MOCLDY    69  61  75 CALM      30.19S
SIERRA VISTA   CLOUDY    66  63  88 S7        30.24F
SAFFORD        CLOUDY    71  66  84 CALM      30.15F
$$

AZZ020-021-025-026-031-281200-
SOUTHWEST ARIZONA

CITY           SKY/WX    TMP DP  RH WIND       PRES   REMARKS
YUMA           NOT AVBL
$$

CAZ031-033-041-043-047-048-061-281200-
SOUTHERN CALIFORNIA

CITY           SKY/WX    TMP DP  RH WIND       PRES   REMARKS
DOWNTOWN L.A.  CLOUDY    68  63  84 CALM      30.03R
L.A. AIRPORT   CLOUDY    68  65  90 W5        30.04R
SAN DIEGO      MOCLDY    72  66  81 N3        30.03F
BURBANK        CLOUDY    70  60  70 SE5       30.04R
ONTARIO        CLOUDY    76  39  26 W7        30.04R
RIVERSIDE      CLOUDY    75  56  51 W3        30.04R
PALM SPRINGS   MOCLDY    90  58  33 NW8       29.93F
EL CENTRO NAS  CLEAR     87  60  40 SW10      29.87S
IMPERIAL       CLEAR     86  60  41 SW7       29.87S
BLYTHE           N/A    N/A N/A N/A MISG      29.91R
$$

NVZ020-UTZ003-281200-
SOUTHERN NEVADA-UTAH

CITY           SKY/WX    TMP DP  RH WIND       PRES   REMARKS
LAS VEGAS      NOT AVBL
SALT LAKE CITY MOCLDY    82  44  26 NE3       30.14R
$$

NMZ009-TXZ055-281200-
NEW MEXICO-WEST TEXAS

CITY           SKY/WX    TMP DP  RH WIND       PRES   REMARKS
ALBUQUERQUE    MOCLDY    70  55  59 N6        30.36R
EL PASO        CLOUDY    76  59  55 N16       30.19R
$$


........................KEY........................
SKY/WX - SKY CONDITION/WEATHER
TMP    - TEMPERATURE IN FAHRENHEIT
DP     - DEW POINT IN FAHRENHEIT
RH     - RELATIVE HUMIDITY IN PERCENT
WIND   - DIRECTION AND SPEED IN MILES PER HOUR (MPH)
VRB    - VARIABLE WIND DIRECTION
PRES   - MEAN SEA LEVEL PRESSURE IN INCHES OF MERCURY
         F - FALLING PRESSURE   R - RISING PRESSURE
         S - STEADY PRESSURE
VSB    - VISIBILITY IN MILES
HX     - HEAT INDEX IN FAHRENHEIT
WCI    - WIND CHILL INDEX IN FAHRENHEIT
TC     - TEMPERATURE IN CELSIUS WHICH IS ALSO KNOWN AS
         TEMPERATURE IN CENTIGRADE
AFB    - AIR FORCE BASE
         LUKE AFB IS LUKE AIR FORCE BASE
         DAVIS-MONTHAN IS DAVIS-MONTHAN AIR FORCE BASE
NAS    - NAVAL AIR STATION
         EL CENTRO NAS IS EL CENTRO NAVAL AIR STATION
N/A    - NOT AVAILABLE


USA.gov is the U.S. government's official web portal to all federal, state and local government web resources and services.